Home   Weather   India   Hassan   Past weeks
Flag for India

Past Weather in Hassan, Karnataka, India — Yesterday and Last 2 Weeks

Currently: 81 °F. Fog. (Weather station: Mangalore / Bajpe, India). See more current weather

Past Weather in Hassan — Graph

°F

Hassan Temperature Yesterday

Maximum temperature yesterday: 86 °F (at 1:00 pm)
Minimum temperature yesterday: 75 °F (at 1:30 am)
Average temperature yesterday: 79 °F

High & Low Weather Summary for the Past Weeks

 TemperatureHumidityPressure
High91 °F (Nov 18, 2:30 pm)100% (Nov 25, 2:00 am)29.95 "Hg (Nov 25, 2:00 am)
Low70 °F (Nov 19, 4:30 am)30% (Nov 19, 2:30 pm)29.71 "Hg (Nov 27, 3:30 pm)
Average80 °F73%29.83 "Hg
* Reported Nov 15 6:30 pm — Nov 30 6:30 pm, Hassan. Weather by CustomWeather, © 2022

Note: Actual official high and low records may vary slightly from our data, if they occured in-between our weather recording intervals... More about our weather records

Hassan Weather History for the Previous 24 Hours

Scroll right to see more
 ConditionsComfort  
Time TempWeatherWind HumidityBarometerVisibility
6:30 pm
Wed, Nov 30
82 °FFog.5 mph79%29.80 "Hg3 mi
6:00 pm82 °FFog.6 mph79%29.80 "Hg3 mi
5:30 pm84 °FHaze.6 mph70%29.77 "Hg3 mi
5:00 pm84 °FHaze.7 mph70%29.77 "Hg3 mi
4:30 pm86 °FHaze.9 mph66%29.77 "Hg3 mi
4:00 pm86 °FHaze.7 mph66%29.77 "Hg3 mi
3:30 pm86 °FHaze.8 mph66%29.77 "Hg3 mi
3:00 pm88 °FHaze.7 mph62%29.77 "Hg3 mi
2:30 pm90 °FHaze.9 mph59%29.77 "Hg3 mi
2:00 pm88 °FHaze.7 mph62%29.77 "Hg3 mi
1:30 pm88 °FHaze.7 mph62%29.80 "Hg3 mi
1:00 pm88 °FHaze.3 mph62%29.83 "Hg3 mi
12:30 pm88 °FHaze.3 mph59%29.83 "Hg3 mi
11:30 am86 °FHaze.3 mph66%29.86 "Hg3 mi
11:00 am86 °FHaze.2 mph59%29.89 "Hg3 mi
10:30 am84 °FFog.2 mph74%29.89 "Hg2 mi
10:00 am82 °FFog.3 mph79%29.89 "Hg1 mi
9:30 am81 °FFog.3 mph84%29.89 "Hg1 mi
9:00 am77 °FFog.5 mph94%29.89 "Hg0 mi
8:30 am77 °FFog.5 mph89%29.89 "Hg1 mi
8:00 am75 °FFog.5 mph100%29.86 "Hg1 mi
7:30 am75 °FFog.3 mph94%29.86 "Hg0 mi
7:00 am75 °FFog.3 mph94%29.86 "Hg1 mi
6:30 am75 °FFog.3 mph94%29.83 "Hg0 mi
5:00 am75 °FFog.No wind94%29.80 "Hg1 mi
4:30 am75 °FFog.3 mph94%29.80 "Hg1 mi
4:00 am77 °FFog.No wind89%29.80 "Hg1 mi
3:30 am77 °FFog.No wind89%29.80 "Hg1 mi
3:00 am77 °FFog.No wind89%29.80 "Hg1 mi
2:30 am77 °FFog.No wind89%29.80 "Hg3 mi
2:00 am77 °FFog.3 mph89%29.83 "Hg3 mi
1:30 am79 °FPassing clouds.3 mph84%29.83 "Hg4 mi
1:00 am77 °FPassing clouds.3 mph89%29.83 "Hg4 mi
12:30 am77 °FPassing clouds.No wind89%29.86 "Hg4 mi
12:00 am79 °FPassing clouds.No wind84%29.86 "Hg4 mi
11:30 pm
Tue, Nov 29
79 °FPassing clouds.No wind84%29.86 "Hg4 mi
10:00 pm79 °FPassing clouds.No wind84%29.86 "Hg4 mi
9:30 pm79 °FPassing clouds.No wind89%29.86 "Hg4 mi
9:00 pm81 °FPassing clouds.No wind84%29.86 "Hg4 mi
8:30 pm81 °FPassing clouds.No wind84%29.86 "Hg4 mi
8:00 pm81 °FPassing clouds.No wind79%29.83 "Hg4 mi
Weather by CustomWeather, © 2022

See weather overview